DW2849 Weather Reports


time (UTC)temp
C
wind
direction
speed
KPH
gust
KPH
rain 1hr
cm
rain 24hr
cm
rain mn
cm
humidity
%
barometer
mb
20260506134448 10 45 0.0 0.0 0.00 0.00 0.00 87 1019.2
20260506133749 10 55 0.0 0.0 0.00 0.00 0.00 87 1019.2
20260506133049 10 158 0.0 0.0 0.00 0.00 0.00 87 1019.1
20260506132350 10 315 0.0 0.0 0.00 0.00 0.00 87 1019.1
20260506131649 10 315 0.0 0.0 0.00 0.00 0.00 87 1019.0
20260506130948 10 315 0.0 0.0 0.00 0.00 0.00 87 1019.0
20260506130057 10 315 0.0 0.0 0.00 0.00 0.00 87 1018.9
20260506125357 10 315 0.0 0.0 0.00 0.00 0.00 87 1018.8
20260506124657 10 315 0.0 0.0 0.00 0.00 0.00 87 1018.7
20260506123957 10 315 0.0 0.0 0.00 0.00 0.00 87 1018.7
20260506123257 10 315 0.0 0.0 0.00 0.00 0.00 87 1018.7
20260506122406 10 315 0.0 0.0 0.00 0.00 0.00 87 1018.7
20260506121706 10 315 0.0 0.0 0.00 0.00 0.00 87 1018.7
20260506121006 10 315 0.0 0.0 0.00 0.00 0.00 87 1018.6
20260506120306 10 315 0.0 0.0 0.00 0.00 0.00 87 1018.6
20260506115606 10 315 0.0 0.0 0.00 0.00 0.00 87 1018.6
20260506114906 10 270 0.0 1.6 0.00 0.00 0.00 87 1018.6
20260506114206 10 270 0.0 1.6 0.00 0.00 0.00 88 1018.5
20260506113315 10 267 0.0 1.6 0.00 0.00 0.00 87 1018.5
20260506112615 10 270 0.0 4.8 0.00 0.00 0.00 88 1018.5
20260506111915 10 270 0.0 0.0 0.00 0.00 0.00 88 1018.4
20260506111215 10 315 0.0 0.0 0.00 0.00 0.00 87 1018.4
20260506110514 10 270 0.0 0.0 0.00 0.00 0.00 88 1018.3
20260506105624 10 270 0.0 0.0 0.00 0.00 0.00 88 1018.2
20260506104923 10 270 0.0 0.0 0.00 0.00 0.00 88 1018.2
20260506104223 10 270 0.0 0.0 0.00 0.00 0.00 88 1018.2
20260506103332 10 270 0.0 0.0 0.00 0.00 0.00 88 1018.1
20260506102632 10 270 0.0 1.6 0.00 0.00 0.00 88 1018.1
20260506101932 10 231 0.0 1.6 0.00 0.00 0.00 88 1018.0
20260506101232 10 332 0.0 0.0 0.00 0.00 0.00 88 1017.9
20260506100532 10 0 0.0 0.0 0.00 0.00 0.00 88 1017.9
20260506095641 10 0 0.0 0.0 0.00 0.00 0.00 88 1017.8
20260506094940 10 0 0.0 0.0 0.00 0.00 0.00 87 1017.8
20260506094242 10 0 0.0 0.0 0.00 0.00 0.00 87 1017.8
20260506093349 10 0 0.0 0.0 0.00 0.03 0.00 87 1017.8
20260506092649 10 0 0.0 0.0 0.00 0.03 0.00 87 1017.9
20260506091949 10 0 0.0 0.0 0.00 0.03 0.00 87 1018.0
20260506091249 10 0 0.0 3.2 0.00 0.03 0.00 87 1017.9
20260506090549 10 0 1.6 3.2 0.00 0.03 0.00 88 1018.0
20260506085849 10 309 0.0 0.0 0.00 0.03 0.00 88 1017.9
20260506084958 10 289 0.0 0.0 0.00 0.05 0.00 88 1017.9
20260506084258 10 270 0.0 3.2 0.00 0.05 0.00 88 1018.0
20260506083557 10 270 1.6 3.2 0.00 0.05 0.00 88 1018.0
20260506082857 10 256 1.6 4.8 0.00 0.05 0.00 88 1018.0
20260506082006 10 262 3.2 4.8 0.00 0.05 0.00 88 1017.9
20260506081307 10 270 3.2 3.2 0.00 0.05 0.00 88 1017.9
20260506080606 10 255 0.0 3.2 0.00 0.05 0.00 88 1017.8
20260506073106 10 225 3.2 6.4 0.00 0.05 0.00 88 1017.6
20260506072215 10 248 3.2 3.2 0.00 0.05 0.00 88 1017.6
20260506071515 10 202 1.6 6.4 0.00 0.05 0.00 88 1017.6
20260506070815 10 215 3.2 4.8 0.00 0.08 0.00 87 1017.5
20260506070115 10 225 3.2 4.8 0.00 0.08 0.00 88 1017.4
20260506062232 10 217 3.2 4.8 0.00 0.13 0.00 87 1017.3
20260506061532 10 240 1.6 4.8 0.00 0.13 0.00 87 1017.3
20260506060832 10 248 1.6 8.0 0.00 0.13 0.00 87 1017.2
20260506060137 10 225 3.2 6.4 0.00 0.13 0.00 87 1017.2
20260506051041 10 270 3.2 6.4 0.00 0.13 0.00 87 1016.9
20260506050150 10 240 1.6 6.4 0.00 0.13 0.00 87 1016.8
20260506044750 10 225 1.6 3.2 0.00 0.13 0.00 87 1016.7
20260506044050 10 235 1.6 3.2 0.00 0.13 0.00 87 1016.5
20260506043350 10 239 1.6 3.2 0.00 0.13 0.00 87 1016.5
20260506042650 10 225 1.6 4.8 0.00 0.13 0.00 87 1016.4
20260506041950 10 242 1.6 6.4 0.00 0.13 0.00 87 1016.3
20260506041250 10 238 1.6 3.2 0.00 0.13 0.00 87 1016.2
20260506040357 10 239 1.6 6.4 0.00 0.13 0.00 87 1016.1
20260506035506 10 265 4.8 9.7 0.00 0.13 0.00 87 1016.0
20260506034806 10 270 1.6 4.8 0.00 0.13 0.00 87 1015.9
20260506034105 10 225 1.6 4.8 0.00 0.13 0.00 87 1015.7
20260506033406 10 202 1.6 3.2 0.00 0.13 0.00 86 1015.6
20260506032705 10 218 1.6 6.4 0.00 0.13 0.00 86 1015.5
20260506031814 10 262 3.2 8.0 0.00 0.13 0.00 86 1015.3
20260506031114 10 232 3.2 8.0 0.00 0.13 0.00 86 1015.2
20260506030414 11 222 3.2 6.4 0.00 0.13 0.00 85 1015.0
20260506025714 11 265 4.8 6.4 0.00 0.13 0.00 85 1015.0
20260506024823 11 240 4.8 6.4 0.00 0.13 0.00 85 1015.0
20260506024123 11 230 3.2 9.7 0.00 0.13 0.00 85 1014.9
20260506023423 11 259 4.8 8.0 0.00 0.13 0.00 85 1014.8
20260506022723 11 250 4.8 9.7 0.00 0.13 0.00 84 1014.9
20260506022023 11 262 4.8 9.7 0.00 0.15 0.00 84 1014.9
20260506021131 11 245 4.8 9.7 0.00 0.15 0.00 84 1014.8
20260506020432 11 255 4.8 12.9 0.00 0.18 0.00 83 1014.8
20260506015732 12 260 4.8 12.9 0.00 0.20 0.00 82 1014.8
20260506015031 12 228 4.8 9.7 0.00 0.20 0.00 82 1014.7
20260506014333 12 262 6.4 19.3 0.00 0.20 0.00 81 1014.8
20260506013632 12 265 8.0 19.3 0.00 0.20 0.00 81 1014.7
20260506012931 12 225 4.8 9.7 0.00 0.23 0.00 81 1014.8
20260506012232 12 276 4.8 12.9 0.00 0.25 0.00 80 1014.7
20260506011531 12 270 6.4 11.3 0.00 0.25 0.00 80 1014.7
20260506010832 12 262 4.8 12.9 0.00 0.25 0.00 80 1014.6
20260506005940 13 260 6.4 16.1 0.00 0.25 0.00 80 1014.7
20260506005241 13 250 4.8 12.9 0.00 0.25 0.00 80 1014.7
20260506004540 13 262 6.4 9.7 0.00 0.30 0.00 80 1014.7
20260506003840 13 240 4.8 8.0 0.00 0.30 0.00 80 1014.6
20260506003140 13 218 4.8 17.7 0.00 0.30 0.00 80 1014.6
20260506002057 13 235 6.4 9.7 0.00 0.33 0.00 80 1014.6
20260506001358 13 235 4.8 11.3 0.00 0.36 0.00 79 1014.5
20260506000658 13 255 6.4 11.3 0.00 0.36 0.00 80 1014.5
20260505235957 13 239 4.8 11.3 0.00 0.38 0.00 79 1014.6
20260505235258 13 265 4.8 14.5 0.00 0.38 0.00 79 1014.6
20260505234557 13 242 6.4 14.5 0.00 0.41 0.00 79 1014.5
20260505233857 13 265 6.4 14.5 0.00 0.41 0.00 79 1014.5
20260505233158 13 262 4.8 8.0 0.00 0.41 0.00 79 1014.5
20260505232306 14 253 6.4 11.3 0.00 0.43 0.00 79 1014.5
20260505231606 14 238 4.8 12.9 0.00 0.46 0.00 79 1014.6
20260505230906 14 272 6.4 9.7 0.00 0.48 0.00 78 1014.6
20260505230206 14 235 6.4 9.7 0.00 0.48 0.00 78 1014.6
20260505225507 14 282 4.8 11.3 0.00 0.51 0.00 78 1014.6
20260505224807 15 253 8.0 11.3 0.00 0.53 0.00 78 1014.6
20260505224106 15 238 4.8 9.7 0.00 0.53 0.00 78 1014.6
20260505223215 15 272 4.8 9.7 0.00 0.56 0.00 77 1014.7
20260505222515 15 225 4.8 8.0 0.00 0.56 0.00 79 1014.7
20260505221815 15 205 4.8 6.4 0.00 0.56 0.00 78 1014.7
20260505221115 15 225 4.8 12.9 0.00 0.56 0.00 77 1014.8
20260505220224 15 298 3.2 17.7 0.00 0.56 0.00 77 1014.7
20260505215332 15 260 4.8 8.0 0.00 0.56 0.00 78 1014.8
20260505214632 15 231 4.8 8.0 0.00 0.56 0.00 78 1014.9
20260505213933 15 270 4.8 11.3 0.00 0.56 0.00 78 1014.9
20260505213233 15 280 4.8 11.3 0.00 0.56 0.00 78 1015.0
20260505212534 15 276 4.8 14.5 0.00 0.56 0.00 78 1015.0
20260505211832 15 267 6.4 14.5 0.00 0.56 0.00 78 1015.1
20260505211132 15 180 4.8 12.9 0.00 0.56 0.00 78 1015.0
20260505210433 15 309 3.2 6.4 0.00 0.56 0.00 78 1015.1
20260505205732 15 292 3.2 12.9 0.00 0.56 0.00 78 1015.1
20260505204842 15 299 4.8 9.7 0.00 0.56 0.00 78 1015.0
20260505204141 15 225 3.2 9.7 0.00 0.56 0.00 77 1015.1
20260505203441 16 219 4.8 11.3 0.00 0.56 0.00 77 1015.1
20260505202741 15 304 3.2 9.7 0.00 0.56 0.00 79 1015.1
20260505202041 16 222 4.8 8.0 0.00 0.56 0.00 76 1015.0
20260505201150 15 211 6.4 12.9 0.00 0.56 0.00 77 1015.1
20260505200449 15 250 3.2 8.0 0.00 0.56 0.00 78 1015.1
20260505195750 15 225 4.8 8.0 0.00 0.56 0.00 78 1015.2
20260505195049 15 231 4.8 14.5 0.00 0.56 0.00 78 1015.2
20260505194349 14 273 4.8 14.5 0.00 0.56 0.00 80 1015.2
20260505193649 14 228 4.8 12.9 0.00 0.56 0.00 79 1015.2
20260505192758 13 215 6.4 8.0 0.00 0.56 0.00 80 1015.3
20260505192058 13 236 4.8 12.9 0.00 0.56 0.00 83 1015.3
20260505191358 12 250 3.2 12.9 0.00 0.56 0.00 84 1015.3
20260505190658 12 205 3.2 8.0 0.00 0.56 0.00 84 1015.4
20260505185958 12 225 3.2 8.0 0.00 0.56 0.00 84 1015.4
20260505184914 12 253 3.2 4.8 0.00 0.56 0.00 85 1015.2
20260505184214 12 186 1.6 4.8 0.00 0.56 0.00 85 1015.3
20260505183514 12 169 1.6 4.8 0.00 0.56 0.00 85 1015.2
20260505182814 12 209 3.2 4.8 0.00 0.56 0.00 85 1015.2
20260505182114 12 259 3.2 4.8 0.00 0.56 0.00 84 1015.1
20260505181414 12 240 1.6 4.8 0.00 0.56 0.00 85 1015.0
20260505180714 12 259 1.6 6.4 0.00 0.56 0.00 84 1015.0
20260505175823 12 304 1.6 6.4 0.00 0.56 0.00 84 1014.9
20260505175122 12 228 3.2 4.8 0.00 0.56 0.00 85 1014.8
20260505174423 12 180 0.0 3.2 0.00 0.56 0.00 84 1014.7
20260505173531 12 290 3.2 4.8 0.00 0.56 0.00 84 1014.7
20260505172831 12 270 3.2 6.4 0.00 0.56 0.00 83 1014.6
20260505172131 12 264 3.2 8.0 0.00 0.56 0.00 84 1014.6
20260505171431 12 273 1.6 8.0 0.00 0.56 0.00 85 1014.6
20260505170731 12 273 3.2 8.0 0.00 0.56 0.00 84 1014.7
20260505170031 11 332 1.6 9.7 0.00 0.56 0.00 84 1014.6
20260505165331 12 202 1.6 4.8 0.00 0.56 0.00 85 1014.6
20260505164440 11 287 1.6 6.4 0.00 0.56 0.00 85 1014.6
20260505163740 11 289 1.6 6.4 0.00 0.56 0.00 86 1014.6
20260505163041 11 307 1.6 4.8 0.00 0.56 0.00 86 1014.5
20260505162148 11 315 0.0 4.8 0.00 0.56 0.00 86 1014.4
20260505161448 11 315 3.2 6.4 0.00 0.56 0.00 86 1014.3
20260505160748 11 315 1.6 4.8 0.00 0.56 0.00 87 1014.3
20260505153248 10 304 1.6 4.8 0.00 0.56 0.00 87 1014.2
20260505152548 10 323 1.6 4.8 0.00 0.56 0.00 87 1014.2
20260505151700 10 338 3.2 6.4 0.00 0.56 0.00 87 1014.1
20260505150957 10 332 1.6 4.8 0.00 0.56 0.00 87 1014.1
20260505150106 10 222 1.6 8.0 0.00 0.56 0.00 88 1013.9
20260505140315 10 325 1.6 8.0 0.00 0.56 0.00 88 1013.7